Flag for Germany Weather past 2 weeks in Gerolstein, Rhineland-Palatinate, Germany

Now
51 °F

Low clouds.


Feels Like: 48 °F
Forecast: 37 / 50 °F
Wind: 7 mph from West

Location: Nuerburg-Barweiler

Current Time: Dec 18, 2014 at 1:17:31 PM

Latest Report: Dec 18, 2014 at 1:00 PM


Visibility: 17 mi

Pressure: 29.90 "Hg

Humidity: 94%

Dew point: 49 °F

Location of GerolsteinLocation

Historic Weather in Gerolstein — Graph

°F

Gerolstein temperature yesterday

Maximum temperature yesterday: 45 °F (at 11:00 PM)
Minimum temperature yesterday: 33 °F (at 2:00 AM)
Average temperature yesterday: 38 °F

Past Weeks' High & Low Weather Summary

 TemperatureHumidityPressure
High50 °F (Dec 18, 12:00 PM)100% (Dec 3, 1:00 PM)30.42 "Hg (Dec 3, 1:00 PM)
Low28 °F (Dec 7, 7:00 AM)84% (Dec 10, 6:00 AM)29.47 "Hg (Dec 12, 5:00 PM)
Average35 °F96%30.03 "Hg
* Reported Dec 3 12:00 Noon — Dec 18 12:00 Noon, Gerolstein, Weather by CustomWeather, © 2014

Note: Actual official high and low records may vary slightly from our data, if they occured in-between our weather recording intervals... More about our weather records

Advertising

Gerolstein weather history for previous 24 hours

 ConditionsComfort  
Time TempWeatherWind HumidityBarometerVisibility
12:00 PM
Dec 18
50 °FLow clouds.6 mph97%29.90 "Hg15 mi
11:00 AM49 °FDrizzle. Low clouds.6 mph98%29.91 "Hg5 mi
9:00 AM47 °FLow clouds.5 mph99%29.88 "Hg4 mi
8:00 AM47 °FDrizzle. Low clouds.5 mph99%29.89 "Hg6 mi
7:00 AM47 °FPassing clouds.6 mph97%29.88 "Hg25 mi
6:00 AM47 °FLow clouds.6 mph96%29.87 "Hg16 mi
5:00 AM47 °FLow clouds.5 mph98%29.87 "Hg15 mi
3:00 AM46 °FFog.5 mph99%29.90 "Hg3 mi
2:00 AM46 °FLow clouds.3 mph98%29.90 "Hg9 mi
1:00 AM46 °FDrizzle. Low clouds.3 mph99%29.89 "Hg3 mi
12:00 AM46 °FDrizzle. Low clouds.3 mph98%29.88 "Hg3 mi
11:00 PM
Dec 17
45 °FLow clouds.3 mph99%29.86 "Hg4 mi
10:00 PMN/APassing clouds.8 mphN/AN/A43 mi
9:00 PM44 °FDrizzle. Low clouds.5 mph99%29.83 "Hg5 mi
8:00 PM43 °FDrizzle. Low clouds.3 mph99%29.81 "Hg3 mi
7:00 PM43 °FDrizzle. Low clouds.5 mph99%29.78 "Hg3 mi
6:00 PM42 °FLow clouds.5 mph98%29.76 "Hg9 mi
5:00 PM41 °FLow clouds.5 mph97%29.75 "Hg16 mi
4:00 PM40 °FLow clouds.6 mph98%29.72 "Hg16 mi
3:00 PM40 °FLow clouds.6 mph97%29.71 "Hg12 mi
2:00 PM39 °FRain. Low clouds.6 mph97%29.70 "Hg9 mi
1:00 PM38 °FRain. Low clouds.8 mph96%29.70 "Hg6 mi
Weather by CustomWeather, © 2014

See weather overviewHow to use our weather pages